DECAYED

COSMOS 2251 DEB, 36002 (Decayed)

Orbit data source: Space-Track

COSMOS 2251 DEB, 36002 was space debris in LEO originally from a launch on Wed, 16 Jun 1993 UTC launched from the Plesetsk Missile And Space Complex (PKMTR). The debris from Iridium 33, an American commercial communications satellite, has been tracked extensively since its accidental collision with the defunct Russian satellite Cosmos 2251 in 2009. This event, occurring at high speed in low Earth orbit (LEO), generated thousands of pieces of space debris, significantly increasing the risk of further collisions. The Iridium 33 debris cloud has impacted space traffic management and orbital debris mitigation strategies, making it a subject of ongoing study in space situational awareness.

Not visible in the next 10 days
Identifier
36002, 1993-036AWU
Orbit
Decayed
Country
Flag of CISCIS
Related business
Manufacturer
Unknown
Mission
Decayed spacecraft
Bus & Motor
Unknown
Mass
Unknown
Launch date (UTC)
1993-06-16 (33 years ago)
Launch vehicle
Unknown
Launch site
Plesetsk Missile And Space Complex (PKMTR)
Object type
Payload
Rocket body
Debris
Shape & HBR
Unknown shape, 0.1 m
Radar Cross Section
Small (<0.1 m²)

Expand to show TLE details & history
Last TLE update: 1 year ago

TLE from 1 year ago
0 COSMOS 2251 DEB
1 36002U 93036AWU 25095.72346511  .01714704  00000-0  83505-2 0  9999
2 36002  73.9709  94.1110 0018913 262.4665  97.4414 15.79403989848854
Epoch: 2025-04-05T17:21Z
TLE epoch observation values (Epoch: 2025-04-05T17:21:47.385Z)
Latitude
-0.00008°
Longitude
-0.59996°
Altitude
336.574 km
Speed
7.706 km/s
True Right ascension
06h 16m 26s
True Declination
0° 00' 00"
Sunlit
Object was in daylight at epoch
Visualization orbit readout
Latitude
Unknown
Longitude
Unknown
Altitude
Unknown
Speed
Unknown
Apparent Right ascension
Unknown
Apparent Declination
Unknown
Sunlit
N/A
Visualization observer readout
Local Sidereal Time
03:12:13
Azimuth
Unknown
Elevation
Unknown
Doppler factor
Unknown
Orbital elements
Apogee altitude
342.288 km
Perigee altitude
316.916 km
Semi-major axis
6,707.739 km
Eccentricity
0.00189
Inclination
73.9709°
RAAN
94.111°
Arg. of periapsis
262.4665°
True anomaly
97.65624°
Mean anomaly
97.4414°
Eccentric anomaly
97.54882°
Mean motion
3.95074 °/min
Orbital period
91.12 mins
BSTAR
0.0083505
Loading maneuver chart data...
Computing Atmospheric mass density...

Documentation

Showing up to 5 results
|